Regional Weather Roundup
Issued by NWS

Home | Current Version | Previous Version | Graphics & Text | Print | Product List | Glossary On
Versions: 1 2 3 4 5 6 7 8 9 10 11 12 13 14 15 16 17 18 19 20 21 22 23 24 25 26 27 28 29 30 31 32 33 34 35 36 37 38 39 40 41 42 43 44 45 46 47 48 49 50
000
ASUS43 KOAX 010302
RWRNE

WEATHER ROUNDUP FOR NEBRASKA
NATIONAL WEATHER SERVICE OMAHA NE
1000 PM CDT FRI SEP 30 2016

NOTES: SATELLITE DATA IS BEING USED TO AUGMENT CLOUD COVER ABOVE
       12000 FEET.
       "FAIR" INDICATES FEW OR NO CLOUDS BELOW 12,000 FEET WITH NO
       SIGNIFICANT WEATHER AND/OR OBSTRUCTIONS TO VISIBILITY.

  * THESE STATIONS DO NOT REPORT WEATHER SUCH AS RAIN...SNOW OR FOG.

NEZ001>004-019>022-054>056-010400-
NEBRASKA PANHANDLE

CITY           SKY/WX    TMP DP  RH WIND       PRES   REMARKS
SCOTTSBLUFF    CLEAR     55  48  77 E6        30.11R
ALLIANCE       CLEAR     58  48  69 S8        30.11R
CHADRON        PTCLDY    67  46  47 S20       30.05R
SIDNEY         CLOUDY    61  46  57 SE10      30.16R
$$

NEZ057>060-069>072-079>082-010400-
SOUTHWEST NEBRASKA

CITY           SKY/WX    TMP DP  RH WIND       PRES   REMARKS
NORTH PLATTE   CLOUDY    53  45  74 E7        30.15R
IMPERIAL       CLOUDY    59  46  62 SE8       30.15R
LEXINGTON      MOCLDY    58  46  64 SE5       30.17R
MCCOOK         MOCLDY    59  47  64 E8        30.14S
OGALLALA       CLOUDY    63  46  54 SE5       30.14R
$$

NEZ005>010-023>029-035>040-094-010400-
NORTH CENTRAL NEBRASKA

CITY           SKY/WX    TMP DP  RH WIND       PRES   REMARKS
VALENTINE      PTCLDY    60  44  55 S14       30.11S
AINSWORTH      CLOUDY    58  46  66 SE10      30.14S
BROKEN BOW     PTCLDY    56  48  74 CALM      30.16R
O`NEILL        MOCLDY    57  45  65 CALM      30.16S
ORD            PTCLDY    51  43  74 CALM      30.15R
THEDFORD       MOCLDY    58  45  61 SE6       30.14S
$$

NEZ041-046>049-061>064-073>077-083>087-010400-
SOUTH CENTRAL NEBRASKA

CITY           SKY/WX    TMP DP  RH WIND       PRES   REMARKS
GRAND ISLAND   PTCLDY    56  47  71 S3        30.17R
AURORA         MOCLDY    54  48  78 CALM      30.17R
HASTINGS       PTCLDY    51  44  77 NE3       30.17R
HEBRON         PTCLDY    53  49  85 CALM      30.15S
HOLDREGE       PTCLDY    55  44  68 CALM      30.16S
KEARNEY *      CLOUDY    57  41  54 S5        30.16S
YORK           MOCLDY    55  45  67 CALM      30.16S
$$

NEZ011>018-030>034-042>045-010400-
NORTHEAST NEBRASKA

CITY           SKY/WX    TMP DP  RH WIND       PRES   REMARKS
NORFOLK        PTCLDY    48  43  82 SE3       30.16R
ALBION         MOCLDY    54  45  73 CALM      30.17R
BLAIR          PTCLDY    60  53  79 SE5       30.15S
FREMONT        MOCLDY    56  49  78 E3        30.16R
TEKAMAH        CLOUDY    53  49  86 CALM      30.15S
WAYNE          PTCLDY    50  47  87 CALM      30.17S
$$

NEZ050>053-065>068-078-088>093-010400-
SOUTHEAST NEBRASKA

CITY           SKY/WX    TMP DP  RH WIND       PRES   REMARKS
LINCOLN        MOCLDY    56  49  77 N6        30.16R
OMAHA EPPLEY   PTCLDY    61  53  75 SE9       30.15S
BEATRICE       MOCLDY    56  49  78 CALM      30.15R
FALLS CITY     CLEAR     57  53  86 E6        30.14R
NEBRASKA CITY  CLOUDY    58  51  76 SE3       30.16S
PLATTSMOUTH    PTCLDY    58  51  77 E6        30.16R
$$

NEZ044-045-051>053-067-010400-
OMAHA AREA

CITY           SKY/WX    TMP DP  RH WIND       PRES   REMARKS
OMAHA EPPLEY   PTCLDY    61  53  75 SE9       30.15S
BLAIR          PTCLDY    60  53  79 SE5       30.15S
FREMONT        MOCLDY    56  49  78 E3        30.16R
MILLARD        PTCLDY    61  54  78 CALM      30.15S
OFFUTT AFB     PTCLDY    59  54  83 E3        30.14S
PLATTSMOUTH    PTCLDY    58  51  77 E6        30.16R
WAHOO          FAIR      56  48  74 SE5       30.16R
$$




USA.gov is the U.S. government's official web portal to all federal, state and local government web resources and services.